Regional Weather Roundup
Issued by NWS Wakefield, VA

Home | Current Version | Previous Version | Graphics & Text | Print | Product List | Glossary On
Versions: 1 2 3 4 5 6 7 8 9 10 11 12 13 14 15 16 17 18 19 20 21 22 23 24 25 26 27 28 29 30 31 32 33 34 35 36 37 38 39 40 41 42 43 44 45 46 47 48 49 50
079
ASUS41 KAKQ 250215
RWRAKQ

REGIONAL WEATHER ROUNDUP
NATIONAL WEATHER SERVICE WAKEFIELD VA
1000 PM EDT MON APR 24 2017

Note: "fair" indicates few or no clouds below 12,000 feet with no
significant weather and/or obstructions to visibility. * = Denotes
station may not report precipitation (e.g., rain,snow,etc.),
thunder or fog.

VAZ042-051-052>054-056-250300-
NORTHERN VIRGINIA

CITY           SKY/WX    TMP DP  RH WIND       PRES   REMARKS
WASH NATIONAL  CLOUDY    55  50  83 NE17      30.01F
DULLES         LGT RAIN  52  48  86 NE8       30.02S
FORT BELVOIR   CLOUDY    53  49  86 NE6       30.00S
QUANTICO       CLOUDY    55  52  89 NE15      30.00F
FREDERICKSBRG* CLOUDY    53  53 100 NE8       29.98S
STAFFORD*      CLOUDY    51  51  99 NE10G16   30.02F
WARRENTON      CLOUDY    52  48  86 N6        30.00S
CULPEPER*      LGT RAIN  52  50  95 N8        30.02S
MANASSAS*        N/A     52  50  93 N8        30.01S
LEESBURG*      CLOUDY    52  52 100 NE7       30.03F
WINCHESTER     DRIZZLE   46  46 100 N5        30.03F
FRONT ROYAL*   CLOUDY    48  48 100 N5        30.02F
LURAY*         CLOUDY    48  48 100 N8        30.01F
$$

VAZ048-049-060>072-079>083-250300-
CENTRAL AND SOUTH CENTRAL VIRGINIA

CITY           SKY/WX    TMP DP  RH WIND       PRES   REMARKS
RICHMOND       CLOUDY    55  55 100 NE12      29.90S FOG
CHESTERFIELD*  CLOUDY   N/A N/A N/A NE9       29.91F
PETERSBURG*    LGT RAIN  55  54  96 NE14      29.88F
HANOVER        LGT RAIN  54  53  97 VRB5      29.94S
TAPPAHANNOCK*  LGT RAIN  56  56 100 NE9       29.95S
QUINTON*       CLOUDY    55  55 100 NE9       29.90R
CHARLOTTSVILLE LGT RAIN  51  49  92 NE17G23   29.97S FOG
GORDONSVILLE*  CLOUDY    50  49  97 NE9G21    29.97S
ORANGE*        LGT RAIN  50  48  93 NE5G16    29.98S
LOUISA*        CLOUDY    54  52  94 N12G18    29.94F
BUMPASS*       CLOUDY    50  50 100 N7        29.96S
FARMVILLE*     LGT RAIN  53  53 100 N16       29.89S
CREWE*         CLOUDY    53  53 100 NE8G18    29.88S
FORT PICKETT*  CLOUDY    54  50  87 N13G21    29.86F
CHASE CITY*    CLOUDY    54  52  95 N13G22    29.83R
CLARKSVILLE*   CLOUDY    54  54 100 NE9G22    29.81R
SOUTH HILL*    CLOUDY    55  55 100 N12G18    29.87S
LAWRENCEVILLE* CLOUDY    56  55  97 N7        29.83S
EMPORIA*       CLOUDY    57  57 100 N14       29.84S
$$

VAZ088>098-250300-
SOUTHEAST VIRGINIA

CITY           SKY/WX    TMP DP  RH WIND       PRES   REMARKS
NORFOLK        CLOUDY    60  58  92 NE15      29.86R FOG
VIRGINIA BEACH CLOUDY    58  57  97 NE9       29.85R
NORFOLK NAVAL  CLOUDY    59  58  96 E14       29.87S FOG
WEST POINT*    CLOUDY    57  56  97 NE10G16   29.92S
SALUDA*        CLOUDY    56  56 100 NE8       29.93S
NEWPORT NEWS   CLOUDY    59  58  96 NE10G20   29.88S
LANGLEY AFB    CLOUDY    59  59 100 NE15      29.87R
FORT EUSTIS    CLOUDY    59  58  94 NE12G18   29.85S
WILLIAMSBURG*  CLOUDY    59  59 100 NE6       29.89S
HR EXEC AP*    CLOUDY    61  57  88 NE7       29.84R
FRANKLIN*      CLOUDY    60  58  95 NE8       29.83F
US460-WAKEFLD  CLOUDY    59  59 100 NE5       29.86S
$$

VAZ020-022-025-037-045-250300-
WEST CENTRAL AND SOUTHWEST VIRGINIA

CITY           SKY/WX    TMP DP  RH WIND       PRES   REMARKS
STAUNTON*      DRIZZLE   47  46  95 N10       30.00F
WAYNESBORO*    CLOUDY    47  47 100 N6        29.98S
HOT SPRINGS VA RAIN      37  36  93 E15G28    29.91S VSB<1/4
LYNCHBURG      LGT RAIN  50  48  93 NE22G31   29.89S
DANVILLE       LGT RAIN  52  52 100 NE22G32   29.80S
SOUTH BOSTON*  CLOUDY    53  52  95 NE13G21   29.82S
MARTINSVILLE   RAIN      51  49  93 NE12G18   29.84S
ROANOKE        LGT RAIN  52  50  93 NE12      29.89F
BLACKSBURG     RAIN      50  48  93 NE9G17    29.89S
DUBLIN*        RAIN      51  48  87 NE12      29.86F
MARION*        DRIZZLE   51  50  96 CALM      29.87S
HILLSVILLE*    LGT RAIN  49  49 100 CALM      29.81F
RICHLANDS*     DRIZZLE   51  51 100 E7        29.84S
WISE*          CLOUDY    54  54 100 NE5       29.84R
ABINGDON*      RAIN      54  52  93 E10       29.83R
$$

MDZ021>025-VAZ099-100-250300-
SOUTHERN MARYLAND AND THE DELMARVA PENINSULA

CITY           SKY/WX    TMP DP  RH WIND       PRES   REMARKS
PATUXENT RIVER HVY RAIN  54  54 100 E14G22    29.97S FOG
BAY BRIDGE APT CLOUDY    52  50  93 NE8G17    30.02S
LEONARDTOWN    CLOUDY    54  50  87 NE8       29.99S
DOVER          CLOUDY    52  52 100 NE13      30.03F
GEORGETOWN     CLOUDY    54  52  93 MISG      30.01F
EASTON         CLOUDY    54  50  87 E13G20    30.04F
CAMBRIDGE      CLOUDY    54  52  94 NE9G18    29.99S FOG
SALISBURY      CLOUDY    54  54 100 E15G26    29.98S
OCEAN CITY     CLOUDY    54  52  93 NE15G24   29.98S
WALLOPS ISLAND CLOUDY    54  54 100 NE23G30   29.95S
ACCOMACK*      CLOUDY    56  55  97 NE13      29.93R
$$

NCZ012>017-030>032-250300-
NORTH CENTRAL AND EASTERN NORTH CAROLINA

CITY           SKY/WX    TMP DP  RH WIND       PRES   REMARKS
ROANOKE RAPIDS LGT RAIN  61  61 100 NE12G20   29.78S
RALEIGH        HVY RAIN  60  59  96 NE13      29.71R FOG
ELIZABETH CITY CLOUDY    68  60  75 E16G22    29.80F
AHOSKIE*         N/A     62  61  97 N9        29.78F
EDENTON*       CLOUDY    70  62  74 E13G21    29.77F
CURRITUCK*     MOCLDY    66  60  79 E7        29.83S
KILL DEVIL HLS NOT AVBL
MANTEO         PTCLDY    67  61  80 SE15G22   29.80S
CAPE HATTERAS  CLOUDY    72  63  73 SE30G44   29.74F HAZE
TARBORO*       NOT AVBL
GOLDSBORO      LGT RAIN  65  65 100 E17       29.64F
WASHINGTON     RAIN      64  64  97 E16G24    29.71F
GREENVILLE     RAIN      64  64 100 E13G22    29.73F
NEW BERN       LGT RAIN  69  67  93 E9        29.68S
WILMINGTON     LGT RAIN  66  66 100 S3        29.64R
$$

VAZ048-250300-
ELSEWHERE

CITY           SKY/WX    TMP DP  RH WIND       PRES   REMARKS
HARRISBURG PA  CLOUDY    54  44  69 CALM      30.06S
BALTIMORE      LGT RAIN  53  47  79 E21G32    30.03R
ANNAPOLIS      CLOUDY    55  50  83 NE10      30.02F
ANDREWS AFB    CLOUDY    52  49  89 NE9       30.00S
PHILADELPHIA   CLOUDY    55  39  54 E14G24    30.08S
HENDERSON NC   LGT RAIN  54  53  97 NE12G23   29.77S
GREENSBORO     RAIN      52  52 100 NE10      29.75F FOG
ROCKY MOUNT    HVY RAIN  64  64 100 NE9       29.71F FOG
$$

VAZ100-250300-
MARINE

STATION/POSITION TIME  TEMP    WIND        PRES    WAVE   SWELL
                       AIR SEA DIR/SP/G            HT/PER HT/PER
                 (UTC) (F)     (DEG/KT/KT) (MB)    (FT/S) (FT/S)
CAPE MAY NJ      0142   52 55   70/ 10/ 18 1016.5R
LEWES DE         0148   52 55   80/ 23/ 29 1015.9F
15NM E FENWICK I 0150   53 51   50/ 23/ 27 1015.3S   7/ 7   2/11
WACHAPREAGUE VA  0148   55 57   30/ 15/ 22 1012.7R
THOMAS POINT MD  0200   53 56   40/ 15/ 17   N/A
GOOSES REEF MD   0200   55 53   60/ 19/ 25 1015.5    2/ 3
COVE POINT MD    0148   54      80/ 20/ 28 1015.3F
SOLOMONS ISLAND  0148   55 60   50/ 12/ 16   N/A
BISHOPS HEAD MD  0148   55 58   60/ 19/ 27 1014.5S
PINEY POINT MD   0148           80/ 17/ 22   N/A
POTOMAC MD       0200   56 58   80/ 23/ 29 1012.6    3/ 3
LEWISETTA VA     0148   56 61   70/ 18/ 26 1013.6F
RAPPAHANNOCK LGT 0148           40/ 20/ 22 1013.1F
STINGRAY PT      0200   57 61   80/ 21/ 27 1012.0    4/ 4
YORK RVR RNG VA  0148   60      60/ 20/ 23 1011.1R
YORKTOWN VA      0148   60 63   50/ 11/ 14 1011.6F
JAMESTOWN VA     0200   58 67   50/  8/ 14   N/A
DOMINION TERM VA 0148   60      40/  3/  9 1011.1R
KIPTOPEKE VA     0148      60   60/ 13/ 19   N/A
CHES BAY BRIDGE  0136   59 61   60/ 22/ 26 1010.4F
CAPE HENRY VA    0148   58      40/ 21/ 24   N/A
WILLOUBY STN VA  0148   60      50/ 17/ 21 1012.0R
S CRANEY ISL VA  0148   60      70/ 16/ 19 1010.5R
CAPE HENRY BUOY  0142      55                N/A     5/ 7   2/11
1ST LANDING BUOY 0200   59 60              1011.0    3/ 4
CAPE CHARLES BUO 0151      56                N/A     5/ 8   2/11
64NM E OF VA BCH 0150   60 54   80/ 12/ 12 1011.2F   7/ 8   7/ 8
DUCK PIER NC     0148   63 59   80/ 17/ 20 1008.8F
44100 DUCK FRF   0135      54                N/A     8/ 8   2/12
44056 DUCK FRF   0130      60                N/A     6/ 8   2/12
OREGON INLET NC  0148           90/ 13/ 18 1008.2F
HATTERAS NC      0148   72 67  120/ 19/ 27 1006.3F
DIAMOND SHLS NC  0150   74 78  110/ 31/ 39 1005.8F  14/10
CAPE LOOKOUT NC  0200   72     110/ 28/ 30 1004.2R
$$




USA.gov is the U.S. government's official web portal to all federal, state and local government web resources and services.